Fredericksburg, TX

12:51 PM CDT on October 16, 2019 (GMT -0500)
Fredericksburg

Weather History for KT82 - September, 2019

Change the Weather History Date:

Wednesday, September 18, 2019

  Actual Average (KSAT) Record (KSAT)
Temperature  
Mean Temperature 80 °F -  
Max Temperature 96 °F 89 °F 99 °F (2019)
Min Temperature 65 °F 70 °F 50 °F (1903)
Cooling Degree Days 15    
Growing Degree Days 30 (Base 50)    
Moisture  
Dew Point 62 °F    
Average Humidity 59    
Maximum Humidity 92    
Minimum Humidity 25    
Precipitation  
Precipitation 0.00 in - - ()
Sea Level Pressure  
Sea Level Pressure 29.94 in    
Wind  
Wind Speed 1 mph ()    
Max Wind Speed 8 mph    
Max Gust Speed -    
Visibility 10.0 miles    
Events      
Averages and records for this station are not official NWS values.
T = Trace of Precipitation, MM = Missing Value Source: Averaged Metar Reports

Daily Weather History Graph

Daily Weather History Graph

Search for Another Location

Airport or City:

Astronomy

Sep. 18, 2019 Rise Set
Actual Time 7:21 AM CDT 7:37 PM CDT
Civil Twilight 6:57 AM CDT 8:01 PM CDT
Nautical Twilight 6:29 AM CDT 8:29 PM CDT
Astronomical Twilight 6:01 AM CDT 8:57 PM CDT
Moon 10:29 PM CDT (9/18) 11:10 AM CDT (9/18)
Length of Visible Light 13h 03m
Length of Day
12h 15m
Waning Gibbous, 82% of the Moon is Illuminated
Sep 18
Waning Gibbous
Sep 21
Last Quarter
Sep 28
New
Oct 5
First Quarter
Oct 13
Full

Hourly Weather History & Observations

Time (CDT) Temp. Heat Index Dew Point Humidity Pressure Visibility Wind Dir Wind Speed Gust Speed Precip Events Conditions
12:15 AM 70.9 °F - 65.7 °F 83% 29.97 in 10.0 mi Calm Calm - N/A   Clear
12:35 AM 72.0 °F - 65.3 °F 79% 29.97 in 10.0 mi Calm Calm - N/A   Clear
12:55 AM 71.1 °F - 65.5 °F 82% 29.97 in 10.0 mi Calm Calm - N/A   Clear
1:15 AM 70.9 °F - 65.7 °F 83% 29.97 in 10.0 mi Calm Calm - N/A   Clear
1:35 AM 69.4 °F - 66.0 °F 89% 29.97 in 10.0 mi Calm Calm - N/A   Clear
1:55 AM 69.8 °F - 65.7 °F 87% 29.96 in 10.0 mi Calm Calm - N/A   Clear
2:15 AM 68.5 °F - 65.3 °F 89% 29.96 in 10.0 mi Calm Calm - N/A   Clear
2:35 AM 68.9 °F - 65.5 °F 89% 29.96 in 10.0 mi Calm Calm - N/A   Clear
2:55 AM 68.2 °F - 64.6 °F 88% 29.95 in 10.0 mi NW 3.5 mph - N/A   Clear
3:15 AM 67.6 °F - 64.0 °F 88% 29.95 in 10.0 mi North 4.6 mph - N/A   Clear
3:35 AM 68.0 °F - 64.6 °F 89% 29.95 in 10.0 mi Calm Calm - N/A   Clear
3:55 AM 68.4 °F - 64.8 °F 88% 29.94 in 10.0 mi Calm Calm - N/A   Clear
4:15 AM 68.0 °F - 64.6 °F 89% 29.94 in 10.0 mi Calm Calm - N/A   Clear
4:35 AM 67.1 °F - 64.4 °F 91% 29.95 in 10.0 mi Calm Calm - N/A   Clear
4:55 AM 67.3 °F - 64.4 °F 90% 29.94 in 10.0 mi Calm Calm - N/A   Clear
5:15 AM 66.4 °F - 63.7 °F 91% 29.94 in 10.0 mi Calm Calm - N/A   Clear
5:35 AM 66.2 °F - 63.5 °F 91% 29.94 in 10.0 mi Calm Calm - N/A   Clear
5:55 AM 66.2 °F - 63.1 °F 90% 29.94 in 10.0 mi Calm Calm - N/A   Clear
6:15 AM 65.8 °F - 63.0 °F 90% 29.95 in 10.0 mi Calm Calm - N/A   Clear
6:35 AM 66.2 °F - 63.0 °F 89% 29.96 in 10.0 mi Calm Calm - N/A   Clear
6:55 AM 65.3 °F - 62.6 °F 91% 29.96 in 10.0 mi Calm Calm - N/A   Clear
7:15 AM 65.8 °F - 63.1 °F 91% 29.97 in 10.0 mi Calm Calm - N/A   Clear
7:35 AM 65.3 °F - 62.8 °F 92% 29.97 in 10.0 mi Calm Calm - N/A   Clear
7:55 AM 66.0 °F - 63.3 °F 91% 29.98 in 10.0 mi Calm Calm - N/A   Clear
8:15 AM 67.5 °F - 64.4 °F 90% 29.98 in 10.0 mi Calm Calm - N/A   Clear
8:35 AM 68.9 °F - 64.8 °F 87% 29.98 in 10.0 mi Calm Calm - N/A   Clear
8:55 AM 71.8 °F - 66.0 °F 82% 29.98 in 10.0 mi Calm Calm - N/A   Clear
9:15 AM 74.7 °F - 66.9 °F 77% 29.98 in 10.0 mi Calm Calm - N/A   Clear
9:35 AM 77.0 °F - 67.6 °F 73% 29.99 in 10.0 mi Calm Calm - N/A   Clear
9:55 AM 78.1 °F - 67.1 °F 69% 29.99 in 10.0 mi Calm Calm - N/A   Clear
10:15 AM 80.6 °F 82.9 °F 66.7 °F 63% 29.99 in 10.0 mi South 3.5 mph - N/A   Clear
10:35 AM 82.6 °F 84.7 °F 65.8 °F 57% 29.99 in 10.0 mi Calm Calm - N/A   Clear
10:55 AM 85.3 °F 86.8 °F 64.8 °F 50% 29.99 in 10.0 mi South 3.5 mph - N/A   Clear
11:15 AM 86.7 °F 88.1 °F 64.2 °F 47% 29.99 in 10.0 mi ENE 3.5 mph - N/A   Clear
11:35 AM 87.6 °F 88.8 °F 63.7 °F 45% 29.99 in 10.0 mi NNE 3.5 mph - N/A   Clear
11:55 AM 89.4 °F 90.2 °F 62.6 °F 41% 29.98 in 10.0 mi Calm Calm - N/A   Scattered Clouds
12:15 PM 90.9 °F 91.3 °F 61.7 °F 38% 29.98 in 10.0 mi SW 8.1 mph - N/A   Overcast
12:35 PM 91.4 °F 91.4 °F 61.2 °F 36% 29.97 in 10.0 mi WNW 5.8 mph - N/A   Overcast
12:55 PM 88.9 °F 88.8 °F 61.2 °F 39% 29.97 in 10.0 mi NW 6.9 mph - N/A   Overcast
1:35 PM 92.7 °F 91.5 °F 57.6 °F 31% 29.95 in 10.0 mi WNW 4.6 mph - N/A   Scattered Clouds
1:55 PM 93.7 °F 93.0 °F 59.2 °F 31% 29.94 in 10.0 mi NE 8.1 mph - N/A   Scattered Clouds
2:15 PM 92.1 °F 91.4 °F 58.8 °F 33% 29.93 in 10.0 mi North 4.6 mph - N/A   Scattered Clouds
2:35 PM 95.2 °F 94.3 °F 58.5 °F 29% 29.92 in 10.0 mi North 8.1 mph - N/A   Scattered Clouds
2:55 PM 93.6 °F 92.4 °F 57.4 °F 30% 29.91 in 10.0 mi NNW 4.6 mph - N/A   Mostly Cloudy
3:15 PM 93.6 °F 92.4 °F 57.6 °F 30% 29.91 in 10.0 mi West 5.8 mph - N/A   Scattered Clouds
3:35 PM 95.0 °F 93.7 °F 57.2 °F 28% 29.90 in 10.0 mi Calm Calm - N/A   Scattered Clouds
3:55 PM 93.9 °F 92.2 °F 56.5 °F 28% 29.89 in 10.0 mi East 4.6 mph - N/A   Clear
4:15 PM 94.1 °F 92.2 °F 55.4 °F 27% 29.88 in 10.0 mi NE 4.6 mph - N/A   Clear
4:35 PM 95.0 °F 93.0 °F 55.4 °F 26% 29.87 in 10.0 mi ENE 6.9 mph - N/A   Clear
4:55 PM 95.5 °F 93.4 °F 54.7 °F 25% 29.87 in 10.0 mi Calm Calm - N/A   Clear
5:15 PM 95.0 °F 93.0 °F 54.9 °F 26% 29.87 in 10.0 mi Calm Calm - N/A   Scattered Clouds
5:35 PM 93.9 °F 92.0 °F 54.7 °F 27% 29.87 in 10.0 mi WSW 3.5 mph - N/A   Clear
5:55 PM 94.3 °F 92.1 °F 54.3 °F 26% 29.87 in 10.0 mi Calm Calm - N/A   Clear
6:15 PM 93.7 °F 91.4 °F 53.8 °F 26% 29.87 in 10.0 mi Calm Calm - N/A   Clear
6:35 PM 93.2 °F 90.8 °F 54.0 °F 26% 29.87 in 10.0 mi Calm Calm - N/A   Clear
6:55 PM 93.6 °F 91.5 °F 54.5 °F 27% 29.87 in 10.0 mi Calm Calm - N/A   Clear
7:15 PM 91.4 °F 89.9 °F 57.0 °F 31% 29.88 in 10.0 mi ENE 5.8 mph - N/A   Scattered Clouds
7:35 PM 90.1 °F 88.8 °F 57.2 °F 33% 29.88 in 10.0 mi ENE 5.8 mph - N/A   Scattered Clouds
7:55 PM 88.9 °F 88.3 °F 59.4 °F 37% 29.89 in 10.0 mi East 4.6 mph - N/A   Mostly Cloudy
8:15 PM 88.0 °F 87.6 °F 60.1 °F 39% 29.90 in 10.0 mi East 4.6 mph - N/A   Mostly Cloudy
8:35 PM 86.4 °F 86.3 °F 60.8 °F 42% 29.91 in 10.0 mi East 3.5 mph - N/A   Scattered Clouds
8:55 PM 85.5 °F 85.4 °F 60.8 °F 43% 29.91 in 10.0 mi Calm Calm - N/A   Scattered Clouds
9:15 PM 84.6 °F 84.8 °F 61.0 °F 45% 29.92 in 10.0 mi East 3.5 mph - N/A   Mostly Cloudy
9:35 PM 83.5 °F 83.7 °F 61.0 °F 46% 29.93 in 10.0 mi ENE 4.6 mph - N/A   Scattered Clouds
9:55 PM 83.3 °F 83.5 °F 60.8 °F 46% 29.93 in 10.0 mi East 3.5 mph - N/A   Clear
10:15 PM 82.4 °F 82.9 °F 61.2 °F 48% 29.94 in 10.0 mi East 3.5 mph - N/A   Clear
10:35 PM 81.9 °F 82.6 °F 61.3 °F 50% 29.94 in 10.0 mi East 4.6 mph - N/A   Clear
10:55 PM 81.5 °F 82.4 °F 61.7 °F 51% 29.95 in 10.0 mi ESE 3.5 mph - N/A   Clear
11:15 PM 80.8 °F 81.8 °F 61.9 °F 52% 29.95 in 10.0 mi East 3.5 mph - N/A   Clear
11:35 PM 79.3 °F - 62.4 °F 56% 29.95 in 10.0 mi Calm Calm - N/A   Clear
11:55 PM 78.4 °F - 62.6 °F 58% 29.95 in 10.0 mi ENE 3.5 mph - N/A   Clear